EHI
3 3 3 2 2 1 0 0 0 0 0 1 2 4 8 8 3 2 2 1 0 0 0 0 0 0 0 0 0 0 0 0 0 0 0 0 0 0
2 2 2 1 1 1 1 0 0 0 0 0 1 3 5 5 2 2 3 1 0 0 0 0 0 0 0 0 0 0 0 0 0 0 0 0 0 0
1 1 1 1 0 1 1 0 0 0 0 0 0 1 3 3 3 3 2 0 0 0 0 0 0 0 0 0 0 0 0 0 0 0 0 0 0 0
0 0 0 0 0 1 1 0 0 1 0 0 0 1 2 3 5 4 2 0 0 0 0 0 0 0 0 0 0 0 0 0 0 0 0 0 0 0
2 1 0 0 0 0 0 0 0 0 0 0 0 1 2 3 4 4 2 0 0 0 0 0 0 0 0 0 0 0 0 0 0 0 0 0 0 0
4 2 0 0 0 0 0 0 0 0 0 0 0 0 1 2 3 3 1 1 1 1 0 0 0 0 0 0 0 0 0 0 0 0 0 0 0 0
4 3 1 0 1 0 0 0 0 0 0 0 0 0 0 1 2 2 1 1 2 2 1 0 0 0 0 0 0 0 0 0 0 0 0 0 0 0
5 3 1 0 0 0 0 0 0 0 0 0 0 0 0 0 2 3 2 2 3 3 1 0 0 0 0 0 0 0 0 0 0 0 0 0 0 0
6 3 1 0 0 0 0 0 0 0 0 0 0 0 0 0 2 3 3 3 3 3 2 1 1 0 0 0 0 0 0 0 0 0 0 0 0 0
4 3 1 0 0 0 0 0 0 0 0 0 0 0 0 1 2 2 2 2 2 3 3 2 1 0 0 0 0 0 0 0 0 0 0 0 0 0
2 2 1 0 0 0 0 1 2 2 1 0 0 0 0 1 1 1 1 2 2 2 3 3 1 0 0 0 0 0 0 0 0 0 0 0 0 0
1 1 1 0 0 0 1 2 3 2 1 0 0 0 0 0 0 1 1 2 2 3 3 2 1 0 0 0 0 0 0 0 0 0 0 0 0 0
1 1 1 0 0 0 1 2 2 1 0 0 0 0 1 1 1 1 1 2 3 3 2 1 0 0 0 0 0 0 0 0 0 0 0 0 0 0
2 2 1 0 0 0 0 1 1 0 0 0 0 0 1 2 2 3 3 4 4 4 2 2 2 2 1 0 0 0 0 0 0 0 0 0 0 0
2 1 0 0 0 0 0 0 0 0 0 0 0 1 2 2 3 4 5 6 6 5 4 5 6 5 2 0 0 0 0 0 0 0 0 0 0 0
1 0 0 0 0 1 1 1 0 0 0 0 0 1 2 2 2 4 5 6 6 6 6 6 6 5 3 1 0 0 0 0 0 0 0 0 0 0
0 1 1 0 0 1 2 1 0 0 0 0 0 0 1 1 1 3 4 4 3 3 4 4 4 4 3 2 1 0 0 0 0 0 0 0 0 0
1 1 1 1 1 1 1 1 0 0 0 0 1 1 0 0 0 1 2 2 1 1 2 3 3 3 2 2 1 0 0 0 0 0 0 0 0 0
0 1 1 1 1 2 1 0 0 0 0 1 2 2 1 0 0 0 1 1 0 0 1 2 2 1 1 1 0 0 0 0 0 0 0 0 0 0
0 0 0 0 1 2 2 1 0 0 1 2 3 2 1 0 0 0 0 0 0 0 1 1 1 0 0 0 0 0 0 0 0 0 0 0 0 0
0 0 0 0 0 1 1 1 0 1 1 2 3 3 1 1 0 0 0 0 0 0 0 0 0 0 0 0 0 0 0 0 0 0 0 0 0 0
0 0 0 0 0 0 1 1 1 1 2 2 2 3 3 2 1 1 0 0 0 0 0 0 0 0 0 0 0 0 0 0 0 0 0 0 0 0
0 0 0 0 0 1 2 2 1 1 2 2 2 3 4 4 3 2 1 0 0 0 0 0 0 0 0 0 0 0 0 0 0 0 0 0 0 0
Wind_Speed
2 2 2 2 2 1 1 1 2 2 2 2 1 2 2 3 6 4 4 9 11 11 10 10 9 9 9 8 8 7 7 6 6 6 6 7 7 7
2 2 2 2 1 1 1 1 1 2 1 1 1 2 2 2 5 3 3 8 11 10 10 10 10 9 9 9 9 9 8 7 7 7 7 7 7 7
3 3 3 2 1 1 1 1 1 1 2 2 1 1 2 1 2 3 3 4 6 10 11 10 10 10 9 10 10 9 8 8 7 7 7 7 8 7
3 2 2 2 2 1 1 2 2 1 2 2 2 1 2 2 3 3 4 4 4 9 11 10 10 9 9 9 10 9 8 8 8 8 7 7 8 8
3 3 3 2 2 1 2 2 2 2 2 2 2 2 2 2 2 3 3 2 3 6 9 9 10 10 9 9 9 9 8 8 8 8 8 8 8 8
3 3 3 3 3 2 3 2 2 1 2 2 2 2 2 2 2 2 2 2 2 2 4 5 7 9 9 9 9 9 9 9 9 8 8 8 8 8
3 3 3 3 3 3 3 2 2 2 2 2 3 2 2 1 2 2 2 2 2 1 2 3 3 4 5 7 8 9 9 9 9 9 9 9 9 9
3 3 3 4 4 4 4 3 3 3 3 2 3 3 3 2 2 2 1 1 2 1 1 2 3 3 4 5 8 10 10 10 10 10 10 10 9 9
3 3 4 3 4 3 3 4 4 6 6 3 4 4 3 2 2 2 2 2 3 2 1 3 2 3 3 5 9 10 11 11 10 10 10 10 10 9
4 4 4 3 3 2 3 3 4 4 6 6 5 5 4 2 2 3 3 3 3 3 3 3 3 3 3 3 7 10 11 11 11 11 10 10 10 9
5 5 5 4 4 4 3 3 3 4 6 6 6 5 5 5 3 2 3 3 3 3 2 2 2 2 2 2 4 8 9 10 10 10 10 10 9 8
4 5 6 6 5 6 4 3 4 4 4 3 4 5 6 7 8 6 5 4 3 3 2 2 2 1 2 1 2 2 4 7 9 10 10 10 9 5
4 3 3 5 7 7 5 4 5 4 4 4 4 5 5 5 5 6 6 5 4 3 2 2 2 1 2 2 1 2 3 3 4 5 8 10 10 7
3 2 2 5 6 6 5 6 6 4 4 4 4 5 5 5 4 5 6 6 5 5 4 3 2 3 2 2 2 2 2 3 3 3 4 7 8 9
2 2 3 6 6 6 8 7 5 4 4 5 5 5 4 4 3 3 4 4 4 4 5 4 4 3 2 3 3 2 2 2 3 3 3 4 4 4
3 3 4 6 6 5 4 4 5 5 5 5 4 4 3 3 3 3 3 3 3 3 4 5 4 4 3 3 3 3 2 2 3 3 3 3 3 4
2 2 3 3 3 4 4 4 4 4 5 4 4 3 3 3 3 3 3 3 3 3 3 2 2 3 4 3 3 3 3 3 2 2 2 3 3 4
2 3 3 3 4 3 3 3 3 4 4 4 4 3 3 3 3 3 2 3 3 3 2 2 2 2 2 3 3 4 3 3 2 2 2 3 3 3
3 4 4 4 4 3 3 3 3 2 2 3 3 3 3 3 2 2 2 2 3 3 3 3 3 3 3 4 4 5 4 3 2 2 3 3 4 4
5 5 4 3 3 3 3 2 2 2 2 2 2 2 2 2 2 2 2 3 3 3 2 2 2 3 4 4 3 3 5 4 3 3 3 3 3 3
5 5 4 3 3 2 2 2 2 1 1 1 1 1 1 2 2 2 2 3 3 3 3 3 4 4 2 1 2 3 3 5 5 3 3 3 3 3
5 4 3 2 2 2 2 2 2 1 1 1 1 1 1 2 3 3 3 3 3 3 3 3 2 2 2 3 4 3 3 3 3 4 4 4 3 3
3 3 2 2 3 2 2 2 2 2 2 2 2 2 2 2 2 2 2 3 3 3 3 3 2 2 3 3 4 3 4 3 2 3 3 6 8 8
Wind_Direction
233 230 251 257 246 239 206 190 205 235 243 227 199 181 160 153 167 192 186 191 197 203 205 206 207 210 213 213 211 209 211 214 217 223 227 230 233 234
223 223 239 269 277 251 239 246 237 235 252 243 220 175 162 182 175 197 200 195 203 203 203 204 207 210 212 211 210 211 212 214 217 222 226 229 233 235
221 212 219 241 254 252 245 246 259 231 241 267 274 179 174 191 183 217 216 197 203 205 203 203 207 210 212 211 210 211 212 216 221 224 227 230 233 236
219 221 226 232 228 246 234 237 239 228 221 245 257 238 217 200 192 224 237 214 194 197 200 204 207 208 209 210 209 209 211 215 221 224 227 231 234 236
212 218 221 223 227 226 237 239 241 246 220 232 245 239 217 207 194 240 251 240 234 190 195 203 204 206 207 210 209 210 212 216 221 223 224 228 232 233
216 220 225 217 217 221 233 230 243 250 243 252 255 241 215 210 195 230 253 241 248 191 188 197 202 206 209 209 210 213 216 220 223 224 224 224 227 229
212 214 224 203 210 221 231 223 244 243 247 243 249 248 233 199 204 232 248 250 254 223 183 202 190 201 210 217 216 218 217 217 219 222 223 224 226 228
217 217 216 193 193 204 214 218 227 238 246 250 255 253 245 232 212 233 237 252 261 223 188 231 199 206 206 211 213 214 214 215 218 220 221 223 226 229
220 226 239 221 186 193 200 213 225 229 225 236 257 265 263 251 240 252 255 261 254 241 222 251 224 222 216 216 206 209 213 217 221 220 221 222 224 227
220 223 229 229 217 203 212 222 223 219 218 224 236 250 261 264 247 243 248 253 253 241 209 238 244 237 233 211 208 208 212 218 220 222 223 222 223 227
223 221 219 216 206 199 211 228 239 246 234 230 227 235 249 257 249 249 245 245 261 259 216 210 239 254 248 228 214 208 213 218 221 222 223 223 225 228
223 219 219 219 205 193 207 226 240 251 253 232 238 243 244 243 229 218 223 234 246 258 225 207 244 260 271 233 192 200 218 225 224 224 222 221 219 218
232 227 213 198 205 211 216 232 240 250 260 241 231 235 235 232 223 215 214 220 231 243 230 197 242 250 240 266 256 210 205 208 209 222 220 216 212 206
258 251 186 181 202 216 223 235 242 245 251 247 241 238 233 229 227 221 217 219 225 231 234 216 225 229 237 258 264 238 217 213 204 203 201 203 211 217
276 274 237 215 218 224 232 234 228 228 235 241 241 239 236 229 224 217 208 213 226 239 234 223 219 223 228 238 243 242 245 242 216 200 196 192 197 201
248 256 241 234 234 235 228 227 222 227 231 242 247 245 238 225 224 217 209 209 229 245 239 226 214 210 230 244 240 244 233 224 219 209 204 208 206 208
210 217 222 219 220 217 214 216 219 222 229 239 249 247 239 233 228 214 206 214 226 236 238 229 215 210 227 230 243 242 236 240 227 213 213 227 221 213
190 227 231 229 226 230 229 228 226 229 233 234 235 238 239 235 231 218 205 216 231 236 233 225 208 218 253 257 233 237 244 245 237 222 224 235 248 236
209 233 233 227 231 228 224 227 232 236 236 244 246 235 233 238 235 225 214 224 239 239 231 218 214 214 236 259 254 221 224 238 235 232 229 230 245 248
223 232 235 230 228 222 217 222 232 237 244 250 256 252 243 241 248 242 224 231 245 246 241 231 223 223 232 246 256 249 219 217 225 236 242 238 245 248
226 227 229 233 231 216 209 215 229 234 245 260 275 287 287 276 264 247 239 246 246 246 243 245 239 227 240 261 261 257 233 220 220 224 230 241 256 255
229 226 223 227 236 225 205 203 207 209 216 244 274 284 281 277 278 268 258 255 246 243 253 259 248 229 238 245 252 254 257 249 240 240 242 227 223 232
235 237 229 228 231 224 213 207 199 210 215 230 249 259 269 279 285 284 277 272 276 264 254 252 254 250 248 243 249 257 250 243 240 237 256 247 238 243